IRIDIUM 33 DEB, 37550

Orbit data source: Space-Track

IRIDIUM 33 DEB, 37550 is space debris in LEO originally from a launch on Sun, 14 Sep 1997 UTC launched from the Tyuratam Missile And Space Complex (TTMTR). The debris from Iridium 33, an American commercial communications satellite, has been tracked extensively since its accidental collision with the defunct Russian satellite Cosmos 2251 in 2009. This event, occurring at high speed in low Earth orbit (LEO), generated thousands of pieces of space debris, significantly increasing the risk of further collisions. The Iridium 33 debris cloud has impacted space traffic management and orbital debris mitigation strategies, making it a subject of ongoing study in space situational awareness.

Loading next visibility...
Identifier
37550, 1997-051XK
Orbit
LEO
Country
Flag of USUS
Related business
Manufacturer
Unknown
Mission
Spacecraft
Bus & Motor
Unknown
Mass
Unknown
Launch date (UTC)
1997-09-14 (29 years ago)
Launch vehicle
Unknown
Launch site
Tyuratam Missile And Space Complex (TTMTR)
Object type
Payload
Rocket body
Debris
Shape & HBR
Unknown shape, 0.059 m
Radar Cross Section
Small (<0.1 m²)

Expand to show TLE details & history
Last TLE update: 2 days ago

TLE from 2 days ago
0 IRIDIUM 33 DEB
1 37550U 97051XK  26265.73566172  .00003848  00000-0  62599-3 0  9997
2 37550  86.3706 257.5455 0002601 150.2613 209.8751 14.70850076905039
Epoch: 2026-09-22T17:39Z
TLE epoch observation values (Epoch: 2026-09-22T17:39:21.172Z)
Latitude
-0.00007°
Longitude
-8.88959°
Altitude
663.045 km
Speed
7.525 km/s
True Right ascension
17h 10m 10s
True Declination
0° 00' 00"
Sunlit
Object was in daylight at epoch
Visualization orbit readout
Latitude
Unknown
Longitude
Unknown
Altitude
Unknown
Speed
Unknown
Apparent Right ascension
Unknown
Apparent Declination
Unknown
Sunlit
N/A
Visualization observer readout
Local Sidereal Time
05:12:06
Azimuth
Unknown
Elevation
Unknown
Doppler factor
Unknown
Orbital elements
Apogee altitude
657.098 km
Perigee altitude
653.44 km
Semi-major axis
7,033.406 km
Eccentricity
0.00026
Inclination
86.3706°
RAAN
257.5455°
Arg. of periapsis
150.2613°
True anomaly
209.86026°
Mean anomaly
209.8751°
Eccentric anomaly
209.86768°
Mean motion
3.67955 °/min
Orbital period
97.84 mins
BSTAR
0.00062599

Documentation

Showing up to 5 results
|